7 * 24
多渠道服务支持
STARLINK-36934(NORAD编号68279)是美国SpaceX公司星链(Starlink)卫星互联网星座的一颗低轨通信卫星,隶属于星链大规模组网的部署批次。该卫星运行在300-550公里的近地轨道,采用Ku/Ka频段提供通信服务,作为星链星座的组成部分,承担全球互联网覆盖任务,可为偏远地区、海洋、航空等传统网络覆盖盲区提供低延迟、高带宽的联网服务。它延续了星链卫星小型化设计思路,适配星座规模化部署需求,目前处于在轨运行状态,是SpaceX构建全球天基通信系统的组成单元之一。
美国
(US)
| 数据来源 | 国际轨道数据 |
| 星历时间: | 2026-07-27T22:38:28+0800 11小时前 查看轨道信息 |
| 半长轴: | 6840.863km |
| 偏心率: | 0.0001098 |
| 轨道倾角: | 53.159° |
| 近地点辐角 | 102.562° |
| 升交点赤经 | 26.496° |
| 平近点角 | 257.551° |
| 近地点: | 461.974km |
| 远地点: | 463.478km |
| 周期: | 93.848分钟 |
| 每日圈数: | 15.343924 |